Location: Fort Wayne
(41.1310°N, 85.1290°W)
Time: 06:06:04
(UTC-04:00)

Amateur Radio Satellites - All Passes

Search period start: 29 April 2016 05:36
Search period end: 30 April 2016 05:36
Location: Fort Wayne, 41.1310°N, 85.1290°W

Satellite Date Start Highest point End Downlink Frequencies (MHz)
Time Altitude Azimuth
CUBESAT XI-V 29 Apr 05:51:42 05:55:59 40° 71° (ENE) 06:00:18 437.345
MOZHAYETS 4 29 Apr 05:56:44 06:00:06 20° 267° (W) 06:03:30
AIST 2 29 Apr 06:05:24 06:07:26 13° 40° (NE) 06:09:27 435.215
HORYU 2 29 Apr 06:05:40 06:09:57 46° 100° (E) 06:14:10 437.375
BEESAT 2 29 Apr 06:46:20 06:49:27 22° 248° (WSW) 06:52:33 435.950
BEESAT 3 29 Apr 06:48:33 06:50:17 13° 251° (WSW) 06:52:01 437.485
YUBILEINY 29 Apr 06:53:44 07:02:07 49° 75° (ENE) 07:10:27 435.215
RS-15 29 Apr 06:53:45 07:05:14 43° 40° (NE) 07:16:46 29.354- 29.394
STRAND 1 29 Apr 07:03:53 07:07:56 24° 65° (ENE) 07:11:59 437.568
Cubesat XI-IV 29 Apr 07:06:24 07:10:31 22° 94° (E) 07:14:37 437.490
AO-7 29 Apr 07:15:05 07:22:07 32° 303° (WNW) 07:29:10 29.400- 29.500
NOAA 15 29 Apr 07:19:19 07:24:24 45° 99° (E) 07:29:27 137.62
Cosmos 2504 29 Apr 07:19:45 07:24:19 17° 64° (ENE) 07:29:01 435.465 / 435.565
CUBESAT XI-V 29 Apr 07:30:14 07:33:31 19° 267° (W) 07:36:51 437.345
Cosmos 2491 29 Apr 07:35:11 07:43:24 45° 88° (E) 07:51:37 435.465 / 435.565
M-CUBED/EXP-1 PRIME 29 Apr 07:39:22 07:40:36 11° 94° (E) 07:41:50 437.505
NOAA 18 29 Apr 07:39:23 07:44:47 59° 102° (ESE) 07:50:09 137.9125
AIST 2 29 Apr 07:42:19 07:46:29 83° 236° (SW) 07:50:36 435.215
HORYU 2 29 Apr 07:43:15 07:46:08 17° 296° (WNW) 07:49:01 437.375
GOMX 1 29 Apr 07:47:18 07:52:03 29° 94° (E) 07:56:38 467.674
BRITE-PL 29 Apr 07:51:11 07:56:50 63° 100° (E) 08:02:27 437.365/2234.400
SO-50 29 Apr 07:53:20 07:55:54 14° 108° (ESE) 07:58:28 436.795
AUBIESAT-1 29 Apr 08:00:40 08:03:13 16° 96° (E) 08:05:39 437.475
CUTE-I 29 Apr 08:02:28 08:07:48 75° 103° (ESE) 08:13:06 437.470
DOVE 4 29 Apr 08:05:15 08:09:08 21° 91° (E) 08:12:51 437.250
LilacSat-2 29 Apr 08:18:26 08:22:14 61° 285° (WNW) 08:25:58 437.200
HO-68 29 Apr 08:25:42 08:29:42 15° 89° (E) 08:33:39 435.675
STRAND 1 29 Apr 08:42:04 08:46:52 41° 261° (W) 08:51:41 437.568
Cubesat XI-IV 29 Apr 08:45:44 08:50:47 46° 290° (WNW) 08:55:50 437.490
YUBILEINY 29 Apr 08:50:58 08:58:37 36° 275° (W) 09:06:16 435.215
CANX-2 29 Apr 08:51:47 08:54:40 18° 93° (E) 08:57:33 2200.000
NOAA 15 29 Apr 08:59:41 09:03:53 24° 296° (WNW) 09:08:05 137.62
RS-15 29 Apr 09:06:27 09:18:36 69° 245° (WSW) 09:30:42 29.354- 29.394
PRISM 29 Apr 09:08:03 09:12:06 87° 81° (E) 09:16:13 437.425
ISS 29 Apr 09:10:55 09:13:44 27° 135° (SE) 09:16:34 145.825
Cosmos 2504 29 Apr 09:11:07 09:18:38 90° 66° (ENE) 09:26:42 435.465 / 435.565
M-CUBED/EXP-1 PRIME 29 Apr 09:11:37 09:15:38 53° 292° (WNW) 09:19:18 437.505
AAUSAT CUBESAT 2 29 Apr 09:12:46 09:13:28 10° 90° (E) 09:14:11 437.432
CINEMA 3 29 Apr 09:18:53 09:23:11 34° 96° (E) 09:27:16 145.822/145.860
NOAA 18 29 Apr 09:21:09 09:24:58 20° 299° (WNW) 09:28:47 137.9125
CUTE 1.7 + AOD 2 29 Apr 09:24:36 09:28:30 36° 97° (E) 09:32:23 437.475
GOMX 1 29 Apr 09:25:07 09:30:07 37° 291° (WNW) 09:35:00 467.674
BRITE-PL 29 Apr 09:30:45 09:34:46 20° 297° (WNW) 09:38:47 437.365/2234.400
SO-50 29 Apr 09:30:54 09:35:48 72° 304° (NW) 09:40:44 436.795
Cosmos 2491 29 Apr 09:32:08 09:40:16 40° 288° (WNW) 09:48:29 435.465 / 435.565
AUBIESAT-1 29 Apr 09:34:13 09:37:55 35° 295° (WNW) 09:41:21 437.475
DOVE 4 29 Apr 09:42:04 09:47:03 46° 289° (WNW) 09:51:49 437.250
CUTE-I 29 Apr 09:44:13 09:47:12 15° 300° (WNW) 09:50:10 437.470
UNISAT 6 29 Apr 09:58:05 10:00:36 15° 63° (ENE) 10:03:08 437.425
SEEDS 29 Apr 09:59:14 10:03:24 67° 101° (E) 10:07:34 437.485
COMPASS 1 29 Apr 10:10:17 10:14:24 64° 100° (E) 10:18:31 437.405
HO-68 29 Apr 10:11:04 10:18:17 90° 283° (WNW) 10:25:26 435.675
TIGRISAT 29 Apr 10:16:00 10:19:26 21° 66° (ENE) 10:22:52 435.000
CANX-2 29 Apr 10:26:46 10:30:40 37° 288° (WNW) 10:34:33 2200.000
Oscar 11 29 Apr 10:29:33 10:33:26 33° 97° (E) 10:37:19 145.826/435.025
CUBEBUG 2 29 Apr 10:33:42 10:38:05 70° 101° (ESE) 10:42:18 437.445
UWE-3 29 Apr 10:35:01 10:39:13 48° 99° (E) 10:43:15 435.000/436.395/437.385
FUNcube-1 29 Apr 10:35:20 10:39:05 30° 96° (E) 10:42:44 145.935
ANTELSAT 29 Apr 10:38:24 10:42:40 36° 70° (ENE) 10:46:53 437.575/2403.000
AAUSAT CUBESAT 2 29 Apr 10:45:16 10:49:22 62° 285° (WNW) 10:53:26 437.432
ISS 29 Apr 10:47:04 10:50:07 36° 332° (NNW) 10:53:10 145.825
CINEMA 3 29 Apr 10:56:20 11:00:08 24° 294° (WNW) 11:03:46 145.822/145.860
DELFI C3 29 Apr 10:57:27 11:01:01 31° 97° (E) 11:04:36 145.870
CUTE 1.7 + AOD 2 29 Apr 11:01:06 11:04:06 19° 293° (WNW) 11:07:05 437.475
Cosmos 2504 29 Apr 11:06:55 11:11:00 16° 281° (W) 11:15:13 435.465 / 435.565
SO-50 29 Apr 11:14:40 11:17:09 14° 324° (NW) 11:19:40 436.795
ZACube-1 29 Apr 11:15:00 11:19:16 87° 283° (WNW) 11:23:26 437.345
HUMSAT D 29 Apr 11:18:24 11:21:45 24° 95° (E) 11:25:03 437.325/437.525
RS-15 29 Apr 11:22:41 11:28:41 15° 265° (W) 11:34:42 29.354- 29.394
QB50P2 29 Apr 11:23:20 11:26:38 22° 67° (ENE) 11:29:57 145.880/145.840
POLYITAN 1 29 Apr 11:25:23 11:28:44 23° 67° (ENE) 11:32:06 437.675
DUCHIFAT 1 29 Apr 11:28:47 11:32:03 22° 67° (ENE) 11:35:19 145.980
POPSAT HIP 1 29 Apr 11:29:01 11:32:27 24° 68° (ENE) 11:35:54 437.405
UNISAT 6 29 Apr 11:32:10 11:36:48 62° 259° (W) 11:41:25 437.425
QB50P1 29 Apr 11:32:30 11:36:04 26° 68° (ENE) 11:39:39 145.935-145.965
SEEDS 29 Apr 11:37:19 11:38:33 11° 297° (WNW) 11:39:47 437.485
COMPASS 1 29 Apr 11:48:03 11:49:26 11° 297° (WNW) 11:50:49 437.405
TIGRISAT 29 Apr 11:51:26 11:55:51 41° 262° (W) 12:00:15 435.000
ESTCUBE 1 29 Apr 11:56:19 11:58:24 13° 91° (E) 12:00:29 437.505/2401.250
HO-68 29 Apr 12:00:28 12:05:02 19° 305° (NW) 12:09:37 435.675
Oscar 11 29 Apr 12:06:05 12:09:23 22° 293° (WNW) 12:12:40 145.826/435.025
JAS-2 29 Apr 12:06:14 12:08:19 12° 51° (NE) 12:10:29 435.910
NANOSAT C BR1 29 Apr 12:08:52 12:13:05 63° 74° (ENE) 12:17:19 145.865
FUNcube-1 29 Apr 12:11:53 12:15:10 22° 293° (WNW) 12:18:23 145.935
CUBEBUG 2 29 Apr 12:12:38 12:14:04 11° 299° (WNW) 12:15:28 437.445
UWE-3 29 Apr 12:12:47 12:15:14 15° 296° (WNW) 12:17:40 435.000/436.395/437.385
ANTELSAT 29 Apr 12:15:45 12:19:26 23° 266° (W) 12:23:06 437.575/2403.000
ISS 29 Apr 12:25:25 12:27:17 14° 351° (N) 12:29:10 145.825
BUGSAT 1 29 Apr 12:26:44 12:30:45 45° 73° (ENE) 12:34:50 437.445
DELFI C3 29 Apr 12:32:50 12:35:42 19° 293° (WNW) 12:38:33 145.870
GONETS M04 29 Apr 12:37:16 12:45:48 52° 76° (ENE) 12:54:13
CUBEBUG 1 29 Apr 12:41:03 12:44:52 28° 96° (E) 12:48:40 437.445
HUMSAT D 29 Apr 12:53:55 12:57:20 26° 291° (WNW) 13:00:43 437.325/437.525
VELOX 1 29 Apr 12:57:19 13:01:35 42° 99° (E) 13:05:48 145.980
QB50P2 29 Apr 12:58:24 13:02:16 32° 263° (W) 13:06:09 145.880/145.840
AIST 1 29 Apr 13:00:11 13:04:36 76° 82° (E) 13:09:00
POLYITAN 1 29 Apr 13:00:30 13:04:22 32° 263° (W) 13:08:14 437.675
PHONESAT 2.4 29 Apr 13:00:36 13:03:32 36° 160° (SSE) 13:06:28 2401.200-2431.200
DUCHIFAT 1 29 Apr 13:03:42 13:07:33 32° 263° (W) 13:11:25 145.980
POPSAT HIP 1 29 Apr 13:04:19 13:08:06 30° 264° (W) 13:11:54 437.405
DX 1 29 Apr 13:08:07 13:12:24 48° 100° (E) 13:16:38 434.975-435.025
QB50P1 29 Apr 13:08:07 13:11:45 27° 264° (W) 13:15:25 145.935-145.965
AO-85 29 Apr 13:14:07 13:16:40 13° 106° (ESE) 13:19:13 145.980
50 SAT 29 Apr 13:16:19 13:19:59 89° 123° (ESE) 13:23:38 437.505
Gurwin Techsat 1B 29 Apr 13:21:03 13:22:48 12° 58° (ENE) 13:24:34 435.225
UKube-1 29 Apr 13:22:00 13:26:18 57° 101° (E) 13:30:33 .
AISAT 29 Apr 13:28:41 13:33:12 84° 285° (WNW) 13:37:39 437.250
Cosmos 2499 29 Apr 13:29:01 13:36:31 59° 79° (ENE) 13:44:35 435.465 / 435.565
ESTCUBE 1 29 Apr 13:31:07 13:35:34 60° 287° (WNW) 13:40:02 437.505/2401.250
JAS-2 29 Apr 13:46:13 13:51:56 70° 72° (ENE) 13:58:28 435.910
NANOSAT C BR1 29 Apr 13:48:02 13:49:13 11° 270° (W) 13:50:24 145.865
Oscar 19 29 Apr 13:54:26 13:59:26 54° 72° (ENE) 14:04:31 437.125/150
SPROUT 29 Apr 13:59:17 14:03:37 77° 102° (ESE) 14:07:54 437.525
ISS 29 Apr 14:02:41 14:04:46 16° 12° (NNE) 14:06:51 145.825
BUGSAT 1 29 Apr 14:03:53 14:06:22 15° 268° (W) 14:08:51 437.445
CUBEBUG 1 29 Apr 14:17:20 14:21:05 27° 292° (WNW) 14:24:49 437.445
AO-7 29 Apr 14:31:36 14:36:58 19° 50° (NE) 14:42:19 29.400- 29.500
VELOX 1 29 Apr 14:34:35 14:37:43 19° 295° (WNW) 14:40:53 145.980
GONETS M04 29 Apr 14:34:39 14:42:13 34° 276° (W) 14:49:44
SWISSCUBE 29 Apr 14:36:55 14:38:34 12° 90° (E) 14:40:13 437.505
PHONESAT 2.4 29 Apr 14:37:05 14:40:15 79° 175° (S) 14:43:26 2401.200-2431.200
DX 1 29 Apr 14:45:28 14:48:11 16° 296° (WNW) 14:50:55 434.975-435.025
TISAT 1 29 Apr 14:48:03 14:52:18 79° 103° (ESE) 14:56:30 437.305
AO-85 29 Apr 14:51:00 14:56:28 88° 304° (WNW) 15:01:56 145.980
Gurwin Techsat 1B 29 Apr 14:56:35 15:01:54 84° 75° (ENE) 15:07:15 435.225
UKube-1 29 Apr 14:59:36 15:01:51 14° 297° (WNW) 15:04:07 .
ITAMSAT 1 29 Apr 15:04:34 15:09:26 43° 69° (ENE) 15:14:19 435.822/435.867
BEESAT 29 Apr 15:08:48 15:12:37 23° 95° (E) 15:16:23 436.000
Cosmos 2499 29 Apr 15:23:01 15:29:09 27° 276° (W) 15:35:37 435.465 / 435.565
JAS-2 29 Apr 15:34:09 15:37:49 17° 273° (W) 15:41:46 435.910
Oscar 19 29 Apr 15:35:38 15:39:05 18° 268° (W) 15:42:36 437.125/150
SPROUT 29 Apr 15:38:12 15:38:55 10° 299° (WNW) 15:39:39 437.525
ISS 29 Apr 15:38:39 15:41:49 49° 31° (NNE) 15:45:00 145.825
ITUPSAT 1 29 Apr 16:00:31 16:05:18 78° 104° (ESE) 16:10:04 437.325
SWISSCUBE 29 Apr 16:12:06 16:16:51 72° 286° (WNW) 16:21:36 437.505
PHONESAT 2.4 29 Apr 16:13:57 16:17:05 58° 193° (SSW) 16:20:12 2401.200-2431.200
AO-7 29 Apr 16:20:13 16:28:30 81° 70° (ENE) 16:36:49 29.400- 29.500
SO-50 29 Apr 16:23:20 16:26:20 16° 39° (NE) 16:29:15 436.795
O/OREOS (USA 219) 29 Apr 16:26:07 16:30:38 64° 109° (ESE) 16:35:12 437.305
AO-85 29 Apr 16:34:02 16:37:43 18° 321° (NW) 16:41:22 145.980
KKS-1 29 Apr 16:38:35 16:42:17 25° 95° (E) 16:45:57 437.445
Gurwin Techsat 1B 29 Apr 16:40:42 16:42:29 12° 271° (W) 16:44:17 435.225
ITAMSAT 1 29 Apr 16:45:01 16:49:04 23° 266° (W) 16:53:08 435.822/435.867
BEESAT 29 Apr 16:46:07 16:50:27 36° 291° (WNW) 16:54:48 436.000
CUSAT 1 29 Apr 16:53:26 16:56:33 76° 281° (W) 17:00:35 437.405
DANDE 29 Apr 17:02:34 17:05:04 35° 93° (E) 17:07:59 436.750
HORYU 2 29 Apr 17:03:26 17:07:39 43° 71° (ENE) 17:11:54 437.375
STARS 29 Apr 17:05:37 17:09:17 25° 95° (E) 17:12:54 437.465
ISS 29 Apr 17:15:40 17:18:03 19° 228° (SW) 17:20:26 145.825
PCSat 29 Apr 17:17:39 17:22:58 61° 115° (ESE) 17:28:20 145.827
NOAA 18 29 Apr 17:27:54 17:31:11 16° 59° (ENE) 17:34:27 137.9125
ITUPSAT 1 29 Apr 17:40:32 17:42:29 12° 300° (WNW) 17:44:26 437.325
Cosmos 2491 29 Apr 17:46:04 17:52:37 22° 64° (ENE) 17:59:05 435.465 / 435.565
CUTE-I 29 Apr 17:46:57 17:50:09 16° 61° (ENE) 17:53:23 437.470
MOZHAYETS 4 29 Apr 17:50:11 17:54:46 86° 287° (WNW) 17:59:20
PHONESAT 2.4 29 Apr 17:51:21 17:53:36 18° 209° (SSW) 17:55:51 2401.200-2431.200
CUBESAT XI-V 29 Apr 17:51:26 17:51:50 10° 88° (E) 17:52:13 437.345
SO-50 29 Apr 18:02:42 18:07:28 82° 237° (WSW) 18:12:01 436.795
O/OREOS (USA 219) 29 Apr 18:07:50 18:10:31 15° 307° (NW) 18:13:11 437.305
KKS-1 29 Apr 18:14:55 18:18:50 30° 291° (WNW) 18:22:44 437.445
AO-7 29 Apr 18:16:14 18:22:05 21° 268° (W) 18:28:00 29.400- 29.500
M-CUBED/EXP-1 PRIME 29 Apr 18:23:51 18:27:19 21° 60° (ENE) 18:30:46 437.505
Cubesat XI-IV 29 Apr 18:28:06 18:32:58 37° 68° (ENE) 18:37:50 437.490
NOAA 15 29 Apr 18:39:13 18:44:26 71° 73° (ENE) 18:49:42 137.62
HORYU 2 29 Apr 18:41:22 18:44:24 18° 267° (W) 18:47:27 437.375
STARS 29 Apr 18:41:47 18:45:37 30° 291° (WNW) 18:49:25 437.465
AUBIESAT-1 29 Apr 18:45:20 18:49:14 27° 63° (ENE) 18:53:06 437.475
GOMX 1 29 Apr 18:55:07 18:59:21 29° 67° (ENE) 19:03:49 467.674
HO-68 29 Apr 18:56:30 18:59:41 14° 51° (NE) 19:02:51 435.675
LilacSat-2 29 Apr 18:59:54 19:03:44 61° 75° (ENE) 19:07:35 437.200
BRITE-PL 29 Apr 19:01:54 19:06:31 64° 74° (ENE) 19:11:34 437.365/2234.400
PCSat 29 Apr 19:02:36 19:06:48 22° 314° (NW) 19:11:01 145.827
NOAA 18 29 Apr 19:05:40 19:11:11 75° 256° (WSW) 19:16:44 137.9125
DOVE 4 29 Apr 19:10:20 19:14:08 22° 64° (ENE) 19:18:03 437.250
CUTE-I 29 Apr 19:24:18 19:29:37 69° 258° (WSW) 19:34:57 437.470
CUBESAT XI-V 29 Apr 19:25:03 19:29:44 79° 285° (WNW) 19:34:26 437.345
Cosmos 2491 29 Apr 19:41:39 19:50:31 81° 265° (W) 19:59:16 435.465 / 435.565
CANX-2 29 Apr 19:45:31 19:47:39 14° 64° (ENE) 19:49:46 2200.000
YUBILEINY 29 Apr 19:54:14 20:02:41 56° 90° (E) 20:11:07 435.215
M-CUBED/EXP-1 PRIME 29 Apr 19:56:57 20:01:30 48° 256° (WSW) 20:06:05 437.505
Cosmos 2504 29 Apr 20:03:02 20:04:49 11° 77° (ENE) 20:06:35 435.465 / 435.565
Cubesat XI-IV 29 Apr 20:08:33 20:13:05 28° 265° (W) 20:17:38 437.490
CUTE 1.7 + AOD 2 29 Apr 20:17:25 20:20:56 26° 69° (ENE) 20:24:26 437.475
AUBIESAT-1 29 Apr 20:19:18 20:23:32 34° 258° (WSW) 20:27:46 437.475
CINEMA 3 29 Apr 20:19:42 20:24:09 33° 69° (ENE) 20:28:38 145.822/145.860
NOAA 15 29 Apr 20:22:03 20:24:44 14° 270° (W) 20:27:26 137.62
GOMX 1 29 Apr 20:32:53 20:37:18 33° 265° (W) 20:42:00 467.674
BEESAT 3 29 Apr 20:36:59 20:40:55 77° 301° (WNW) 20:44:54 437.485
BEESAT 2 29 Apr 20:37:15 20:41:11 61° 119° (ESE) 20:45:08 435.950
HO-68 29 Apr 20:39:01 20:46:06 68° 70° (ENE) 20:53:12 435.675
BRITE-PL 29 Apr 20:43:19 20:45:36 13° 273° (W) 20:47:58 437.365/2234.400
DOVE 4 29 Apr 20:46:36 20:51:25 48° 262° (W) 20:56:29 437.250
SEEDS 29 Apr 20:50:44 20:54:42 44° 73° (ENE) 20:58:41 437.485
PRISM 29 Apr 20:51:41 20:53:17 12° 91° (E) 20:54:52 437.425
STRAND 1 29 Apr 20:52:09 20:57:15 67° 102° (ESE) 21:02:19 437.568
COMPASS 1 29 Apr 21:00:53 21:04:46 41° 72° (ENE) 21:08:39 437.405
CANX-2 29 Apr 21:18:55 21:23:03 54° 260° (W) 21:27:12 2200.000
RS-15 29 Apr 21:22:10 21:29:14 19° 97° (E) 21:36:30 29.354- 29.394
Oscar 11 29 Apr 21:24:23 21:27:58 26° 69° (ENE) 21:31:32 145.826/435.025
FUNcube-1 29 Apr 21:30:36 21:34:22 26° 68° (ENE) 21:38:05 145.935
CUBEBUG 2 29 Apr 21:30:52 21:35:32 58° 74° (ENE) 21:40:10 437.445
UWE-3 29 Apr 21:31:20 21:35:43 41° 71° (ENE) 21:40:02 435.000/436.395/437.385
AAUSAT CUBESAT 2 29 Apr 21:35:01 21:39:08 83° 79° (E) 21:43:16 437.432
AIST 2 29 Apr 21:40:38 21:43:40 20° 112° (ESE) 21:46:45 435.215
Cosmos 2491 29 Apr 21:41:23 21:45:49 15° 285° (WNW) 21:50:14 435.465 / 435.565
DELFI C3 29 Apr 21:44:06 21:46:55 19° 67° (ENE) 21:49:45 145.870
AO-85 29 Apr 21:44:38 21:47:09 14° 35° (NE) 21:49:35 145.980
Cosmos 2504 29 Apr 21:49:32 21:56:53 77° 95° (E) 22:04:02 435.465 / 435.565
YUBILEINY 29 Apr 21:52:17 21:59:52 32° 290° (WNW) 22:07:29 435.215
CUTE 1.7 + AOD 2 29 Apr 21:53:10 21:56:42 26° 265° (W) 22:00:15 437.475
CINEMA 3 29 Apr 21:56:58 22:01:14 29° 265° (W) 22:05:35 145.822/145.860
ZACube-1 29 Apr 22:09:58 22:14:31 72° 76° (ENE) 22:19:01 437.345
HUMSAT D 29 Apr 22:10:06 22:13:01 18° 66° (ENE) 22:15:55 437.325/437.525
BEESAT 2 29 Apr 22:16:59 22:19:25 15° 317° (NW) 22:21:51 435.950
BEESAT 3 29 Apr 22:18:37 22:19:19 10° 322° (NW) 22:20:01 437.485
PRISM 29 Apr 22:24:50 22:28:55 56° 287° (WNW) 22:33:00 437.425
SEEDS 29 Apr 22:28:14 22:30:38 15° 268° (W) 22:33:02 437.485
HO-68 29 Apr 22:28:57 22:34:20 23° 268° (W) 22:39:44 435.675
STRAND 1 29 Apr 22:32:51 22:35:52 16° 299° (WNW) 22:38:51 437.568
COMPASS 1 29 Apr 22:38:00 22:40:31 16° 268° (W) 22:43:03 437.405
ESTCUBE 1 29 Apr 22:56:28 22:58:27 13° 62° (ENE) 23:00:26 437.505/2401.250
Oscar 11 29 Apr 23:00:19 23:04:01 27° 264° (W) 23:07:42 145.826/435.025
FUNcube-1 29 Apr 23:06:29 23:10:29 30° 264° (W) 23:14:27 145.935
UWE-3 29 Apr 23:08:54 23:12:18 20° 267° (W) 23:15:41 435.000/436.395/437.385
CUBEBUG 2 29 Apr 23:09:50 23:12:29 15° 269° (W) 23:15:07 437.445
AIST 2 29 Apr 23:18:03 23:21:55 38° 308° (NW) 23:25:49 435.215
DELFI C3 29 Apr 23:18:03 23:21:35 31° 263° (W) 23:25:08 145.870
AO-85 29 Apr 23:23:44 23:28:35 78° 58° (ENE) 23:32:56 145.980
UNISAT 6 29 Apr 23:24:38 23:28:18 26° 95° (E) 23:31:53 437.425
RS-15 29 Apr 23:28:22 23:39:37 82° 118° (ESE) 23:51:33 29.354- 29.394
CUBEBUG 1 29 Apr 23:37:12 23:40:40 23° 67° (ENE) 23:44:09 437.445
TIGRISAT 29 Apr 23:43:06 23:47:12 39° 98° (E) 23:51:12 435.000
HUMSAT D 29 Apr 23:44:23 23:48:22 38° 262° (W) 23:52:20 437.325/437.525
Cosmos 2504 29 Apr 23:46:15 23:51:03 18° 295° (WNW) 23:55:49 435.465 / 435.565
ZACube-1 29 Apr 23:50:10 23:51:15 11° 271° (W) 23:52:18 437.345
VELOX 1 29 Apr 23:54:30 23:58:33 37° 70° (ENE) 00:02:39 145.980
50 SAT 29 Apr 23:54:55 23:58:19 38° 73° (ENE) 00:01:44 437.505
DX 1 30 Apr 00:03:26 00:07:31 41° 71° (ENE) 00:11:38 434.975-435.025
ANTELSAT 30 Apr 00:06:30 00:10:52 78° 102° (ESE) 00:15:09 437.575/2403.000
UKube-1 30 Apr 00:16:18 00:20:25 47° 72° (ENE) 00:24:35 .
AISAT 30 Apr 00:25:38 00:30:04 85° 77° (ENE) 00:34:34 437.250
ESTCUBE 1 30 Apr 00:30:15 00:34:41 66° 258° (WSW) 00:39:10 437.505/2401.250
QB50P2 30 Apr 00:43:05 00:47:05 38° 98° (E) 00:51:02 145.880/145.840
POLYITAN 1 30 Apr 00:45:11 00:49:11 39° 98° (E) 00:53:08 437.675
DUCHIFAT 1 30 Apr 00:47:38 00:51:34 37° 98° (E) 00:55:28 145.980
POPSAT HIP 1 30 Apr 00:48:43 00:52:46 42° 99° (E) 00:56:46 437.405
QB50P1 30 Apr 00:52:15 00:56:22 47° 99° (E) 01:00:26 145.935-145.965
SPROUT 30 Apr 00:52:29 00:56:43 57° 74° (ENE) 01:00:58 437.525
JAS-2 30 Apr 00:57:52 01:00:47 12° 84° (E) 01:03:41 435.910
O/OREOS (USA 219) 30 Apr 00:58:30 01:00:53 14° 52° (NE) 01:03:13 437.305
UNISAT 6 30 Apr 01:01:18 01:04:58 27° 292° (WNW) 01:08:34 437.425
AO-85 30 Apr 01:07:05 01:08:11 11° 256° (WSW) 01:09:15 145.980
CUBEBUG 1 30 Apr 01:12:53 01:16:46 32° 263° (W) 01:20:44 437.445
TIGRISAT 30 Apr 01:20:34 01:23:35 19° 295° (WNW) 01:26:34 435.000
NANOSAT C BR1 30 Apr 01:28:59 01:33:12 68° 285° (WNW) 01:37:23 145.865
AIST 1 30 Apr 01:29:19 01:33:22 43° 93° (E) 01:37:30
50 SAT 30 Apr 01:30:30 01:32:18 13° 268° (W) 01:34:06 437.505
VELOX 1 30 Apr 01:31:51 01:35:07 20° 266° (W) 01:38:26 145.980
ITUPSAT 1 30 Apr 01:33:53 01:34:41 10° 59° (ENE) 01:35:30 437.325
GONETS M04 30 Apr 01:37:40 01:46:17 60° 91° (E) 01:54:55
TISAT 1 30 Apr 01:39:18 01:43:27 56° 74° (ENE) 01:47:38 437.305
DX 1 30 Apr 01:40:58 01:43:53 17° 267° (W) 01:46:49 434.975-435.025
SWISSCUBE 30 Apr 01:43:08 01:45:47 15° 62° (ENE) 01:48:26 437.505
RS-15 30 Apr 01:43:09 01:53:29 36° 326° (NW) 02:04:21 29.354- 29.394
BUGSAT 1 30 Apr 01:43:44 01:47:59 80° 103° (ESE) 01:52:08 437.445
CUSAT 1 30 Apr 01:44:12 01:47:59 15° 64° (ENE) 01:52:00 437.405
ANTELSAT 30 Apr 01:46:13 01:46:55 10° 300° (WNW) 01:47:36 437.575/2403.000
UKube-1 30 Apr 01:54:12 01:56:43 15° 268° (W) 01:59:16 .
PCSat 30 Apr 02:05:36 02:10:52 48° 55° (NE) 02:16:06 145.827
Cosmos 2499 30 Apr 02:06:23 02:13:04 45° 90° (E) 02:19:42 435.465 / 435.565
Oscar 19 30 Apr 02:06:57 02:10:38 19° 92° (E) 02:14:18 437.125/150
BEESAT 30 Apr 02:15:09 02:19:09 27° 67° (ENE) 02:23:09 436.000
QB50P2 30 Apr 02:19:39 02:22:35 18° 294° (WNW) 02:25:31 145.880/145.840
POLYITAN 1 30 Apr 02:21:48 02:24:42 18° 294° (WNW) 02:27:35 437.675
DUCHIFAT 1 30 Apr 02:24:01 02:27:00 19° 294° (WNW) 02:29:58 145.980
POPSAT HIP 1 30 Apr 02:25:26 02:28:13 17° 295° (WNW) 02:31:00 437.405
QB50P1 30 Apr 02:29:12 02:31:44 16° 296° (WNW) 02:34:17 145.935-145.965
SPROUT 30 Apr 02:31:10 02:33:01 12° 270° (W) 02:34:52 437.525
O/OREOS (USA 219) 30 Apr 02:36:17 02:40:47 68° 251° (WSW) 02:45:14 437.305
JAS-2 30 Apr 02:39:11 02:46:55 69° 102° (ESE) 02:54:44 435.910
ITUPSAT 1 30 Apr 03:07:00 03:11:46 88° 72° (ENE) 03:16:33 437.325
AIST 1 30 Apr 03:08:38 03:11:13 16° 290° (WNW) 03:13:51
Gurwin Techsat 1B 30 Apr 03:13:12 03:17:59 33° 97° (E) 03:22:44 435.225
TISAT 1 30 Apr 03:17:44 03:19:27 12° 269° (W) 03:21:11 437.305
SWISSCUBE 30 Apr 03:18:21 03:23:03 63° 259° (W) 03:27:47 437.505
ITAMSAT 1 30 Apr 03:18:47 03:21:39 15° 91° (E) 03:24:32 435.822/435.867
CUSAT 1 30 Apr 03:23:56 03:30:54 75° 80° (E) 03:38:55 437.405
GONETS M04 30 Apr 03:36:03 03:43:36 31° 291° (WNW) 03:51:11
DANDE 30 Apr 03:36:31 03:42:31 49° 77° (ENE) 03:49:57 436.750
KKS-1 30 Apr 03:36:43 03:40:16 24° 67° (ENE) 03:43:51 437.445
Oscar 19 30 Apr 03:45:12 03:50:15 51° 289° (WNW) 03:55:15 437.125/150
PCSat 30 Apr 03:49:40 03:53:56 24° 253° (WSW) 03:58:11 145.827
BEESAT 30 Apr 03:52:36 03:56:49 31° 263° (W) 04:01:04 436.000
Cosmos 2499 30 Apr 04:00:13 04:06:20 30° 289° (WNW) 04:12:28 435.465 / 435.565
RS-15 30 Apr 04:02:15 04:10:59 22° 0° (N) 04:19:57 29.354- 29.394
STARS 30 Apr 04:02:21 04:05:50 23° 67° (ENE) 04:09:21 437.465
AO-7 30 Apr 04:22:45 04:29:27 26° 94° (E) 04:36:07 29.400- 29.500
JAS-2 30 Apr 04:25:06 04:31:18 28° 299° (WNW) 04:37:38 435.910
MOZHAYETS 4 30 Apr 04:51:39 04:56:13 87° 79° (E) 05:00:49
Gurwin Techsat 1B 30 Apr 04:53:12 04:57:51 31° 293° (WNW) 05:02:28 435.225
BEESAT 3 30 Apr 04:54:26 04:58:21 57° 55° (NE) 05:02:13 437.485
CUBESAT XI-V 30 Apr 04:54:48 04:55:56 11° 60° (ENE) 04:57:03 437.345
BEESAT 2 30 Apr 04:55:34 04:59:16 35° 51° (NE) 05:02:56 435.950
ITAMSAT 1 30 Apr 04:56:26 05:01:34 66° 287° (WNW) 05:06:42 435.822/435.867
CUSAT 1 30 Apr 05:07:19 05:12:34 23° 273° (W) 05:18:17 437.405
KKS-1 30 Apr 05:12:38 05:16:39 33° 263° (W) 05:20:44 437.445
DANDE 30 Apr 05:19:43 05:25:14 32° 268° (W) 05:31:49 436.750
